Location: Azul
(36.7830°S, 59.8500°W)
Time: 10:03:10
(UTC-03:00)

Gurwin Techsat 1B - Visible Passes

Search period start: 22 October 2021 00:00
Search period end: 01 November 2021 00:00
Orbit: 811 x 814 km, 98.8° (Epoch: 22 October)

Date Brightness Start Highest point End Pass type
(mag) Time Alt. Az. Time Alt. Az. Time Alt. Az.
22 Oct 11.4 00:54:03 11° SE 00:54:03 11° SE 00:54:29 10° SE visible
22 Oct 10.4 02:35:15 26° SSW 02:35:15 26° SSW 02:37:31 10° SSW visible
23 Oct 10.4 02:11:55 28° S 02:11:55 28° S 02:14:32 10° S visible
24 Oct 10.6 01:48:37 25° SSE 01:48:37 25° SSE 01:51:19 10° S visible
24 Oct 10.7 03:29:48 15° SW 03:29:48 15° SW 03:30:55 10° SW visible
25 Oct 10.9 01:25:18 19° SE 01:25:18 19° SE 01:27:49 10° SSE visible
25 Oct 10.4 03:06:30 22° SW 03:06:30 22° SW 03:08:32 10° SSW visible
26 Oct 11.2 01:01:59 13° SE 01:01:59 13° SE 01:03:42 10° SSE visible
26 Oct 10.1 02:43:11 30° SSW 02:43:11 30° SSW 02:45:51 10° SSW visible
27 Oct 10.0 02:19:52 34° S 02:19:52 34° S 02:22:55 10° S visible
28 Oct 10.2 01:56:33 31° SSE 01:56:33 31° SSE 01:59:48 10° S visible
28 Oct 10.6 03:37:45 15° SW 03:37:45 15° SW 03:38:58 10° SW visible
29 Oct 10.6 01:33:15 23° SE 01:33:15 23° SE 01:36:25 10° SSE visible
29 Oct 10.2 03:14:26 23° SW 03:14:26 23° SW 03:16:44 10° SSW visible
30 Oct 11.0 01:09:57 16° SE 01:09:57 16° SE 01:12:35 10° SSE visible
30 Oct 9.9 02:51:08 33° SSW 02:51:08 33° SSW 02:54:08 10° SSW visible
31 Oct 9.7 02:27:50 41° S 02:27:50 41° S 02:31:17 10° S visible
